Hourly Weather Gogolevka

Today, 15 May, Saturday

Time Temperature Precipitation Wind Pressure Humidity
00:00 +12°C° 0 mm 1 mps 734 mmHg 93%
01:00 +12°C° 0 mm 1 mps 734 mmHg 93%
02:00 +12°C° 0 mm 1 mps 734 mmHg 93%
03:00 +12°C° 0 mm 1 mps 734 mmHg 93%
04:00 +11°C° 0 mm 1 mps 734 mmHg 94%
05:00 +11°C° 0 mm 1 mps 734 mmHg 94%
06:00 +12°C° 0.1 mm 2 mps 734 mmHg 92%
07:00 +13°C° 0.1 mm 2 mps 734 mmHg 90%
08:00 +14°C° 0.1 mm 2 mps 734 mmHg 89%
09:00 +15°C° 0.2 mm 2 mps 734 mmHg 85%
10:00 +15°C° 0.2 mm 2 mps 735 mmHg 82%
11:00 +16°C° 0.2 mm 3 mps 735 mmHg 79%
12:00 +17°C° 0.6 mm 3 mps 734 mmHg 75%
13:00 +18°C° 0.6 mm 3 mps 734 mmHg 70%
14:00 +19°C° 0.6 mm 3 mps 734 mmHg 66%
15:00 +19°C° 0.9 mm 3 mps 734 mmHg 71%
16:00 +18°C° 0.9 mm 2 mps 734 mmHg 75%
17:00 +18°C° 0.9 mm 2 mps 734 mmHg 79%
18:00 +16°C° 0.8 mm 2 mps 734 mmHg 83%
19:00 +15°C° 0.8 mm 2 mps 735 mmHg 87%
20:00 +14°C° 0.8 mm 2 mps 735 mmHg 92%
21:00 +14°C° 0.1 mm 2 mps 735 mmHg 92%
22:00 +13°C° 0.1 mm 2 mps 735 mmHg 93%
23:00 +13°C° 0.1 mm 2 mps 735 mmHg 94%

Tomorrow, 16 May, Sunday

Time Temperature Precipitation Wind Pressure Humidity
00:00 +12°C° 0 mm 2 mps 736 mmHg 94%
01:00 +12°C° 0 mm 2 mps 736 mmHg 95%
02:00 +10°C° 0 mm 2 mps 736 mmHg 95%
03:00 +10°C° 0 mm 2 mps 737 mmHg 95%
04:00 +11°C° 0 mm 1 mps 737 mmHg 94%
05:00 +11°C° 0 mm 1 mps 737 mmHg 94%
06:00 +12°C° 0 mm 1 mps 737 mmHg 89%
07:00 +14°C° 0 mm 1 mps 738 mmHg 84%
08:00 +15°C° 0 mm 1 mps 738 mmHg 80%
09:00 +17°C° 0.1 mm 2 mps 738 mmHg 74%
10:00 +18°C° 0.1 mm 2 mps 738 mmHg 69%
11:00 +19°C° 0.1 mm 3 mps 738 mmHg 63%
12:00 +20°C° 0.1 mm 3 mps 738 mmHg 60%
13:00 +20°C° 0.1 mm 4 mps 738 mmHg 58%
14:00 +21°C° 0.1 mm 4 mps 738 mmHg 55%
15:00 +20°C° 0 mm 4 mps 738 mmHg 58%
16:00 +19°C° 0 mm 3 mps 738 mmHg 62%
17:00 +19°C° 0 mm 3 mps 738 mmHg 66%
18:00 +17°C° 0 mm 2 mps 738 mmHg 72%
19:00 +16°C° 0 mm 2 mps 738 mmHg 78%
20:00 +15°C° 0 mm 2 mps 738 mmHg 83%
21:00 +14°C° 0 mm 2 mps 738 mmHg 85%
22:00 +14°C° 0 mm 2 mps 738 mmHg 86%
23:00 +12°C° 0 mm 3 mps 738 mmHg 88%

Day after tomorrow, 17 May, Monday

Time Temperature Precipitation Wind Pressure Humidity
00:00 +12°C° 0 mm 3 mps 738 mmHg 88%
01:00 +12°C° 0 mm 3 mps 737 mmHg 89%
02:00 +12°C° 0 mm 3 mps 737 mmHg 90%
03:00 +12°C° 0.1 mm 3 mps 737 mmHg 90%
04:00 +12°C° 0.1 mm 3 mps 737 mmHg 91%
05:00 +12°C° 0.1 mm 3 mps 737 mmHg 91%
06:00 +13°C° 0 mm 4 mps 737 mmHg 87%
07:00 +15°C° 0 mm 4 mps 737 mmHg 83%
08:00 +17°C° 0 mm 4 mps 737 mmHg 79%
09:00 +18°C° 0 mm 4 mps 737 mmHg 76%
10:00 +18°C° 0 mm 4 mps 737 mmHg 74%
11:00 +19°C° 0 mm 3 mps 737 mmHg 71%
12:00 +19°C° 0.3 mm 3 mps 736 mmHg 72%
13:00 +19°C° 0.3 mm 2 mps 736 mmHg 74%
14:00 +20°C° 0.3 mm 1 mps 736 mmHg 75%
15:00 +18°C° 1.4 mm 2 mps 735 mmHg 82%
16:00 +16°C° 1.4 mm 3 mps 734 mmHg 88%
17:00 +14°C° 1.4 mm 3 mps 734 mmHg 95%
18:00 +14°C° 2.2 mm 4 mps 733 mmHg 95%
19:00 +13°C° 2.2 mm 4 mps 733 mmHg 95%
20:00 +13°C° 2.2 mm 4 mps 733 mmHg 96%
21:00 +13°C° 1 mm 4 mps 732 mmHg 96%
22:00 +13°C° 1 mm 4 mps 731 mmHg 97%
23:00 +12°C° 1 mm 3 mps 731 mmHg 97%

18 May, Tuesday

Time Temperature Precipitation Wind Pressure Humidity
00:00 +12°C° 3.4 mm 3 mps 730 mmHg 97%
01:00 +12°C° 3.4 mm 3 mps 730 mmHg 98%
02:00 +13°C° 3.4 mm 2 mps 730 mmHg 98%
03:00 +13°C° 0 mm 2 mps 730 mmHg 98%
04:00 +13°C° 0 mm 2 mps 730 mmHg 98%
05:00 +13°C° 0 mm 2 mps 730 mmHg 98%
06:00 +13°C° 0 mm 2 mps 730 mmHg 97%
07:00 +12°C° 0 mm 3 mps 730 mmHg 96%
08:00 +12°C° 0 mm 3 mps 730 mmHg 95%
09:00 +13°C° 0.2 mm 3 mps 731 mmHg 91%
10:00 +14°C° 0.2 mm 3 mps 731 mmHg 87%
11:00 +16°C° 0.2 mm 3 mps 731 mmHg 82%
12:00 +16°C° 0.8 mm 3 mps 731 mmHg 84%
13:00 +16°C° 0.8 mm 3 mps 732 mmHg 87%
14:00 +16°C° 0.8 mm 3 mps 732 mmHg 89%
15:00 +16°C° 0.6 mm 3 mps 732 mmHg 87%
16:00 +16°C° 0.6 mm 2 mps 732 mmHg 84%
17:00 +17°C° 0.6 mm 2 mps 732 mmHg 82%
18:00 +16°C° 0.2 mm 2 mps 732 mmHg 85%
19:00 +15°C° 0.2 mm 2 mps 732 mmHg 88%
20:00 +13°C° 0.2 mm 2 mps 733 mmHg 91%
21:00 +12°C° 0.3 mm 3 mps 733 mmHg 92%
22:00 +12°C° 0.3 mm 3 mps 733 mmHg 94%
23:00 +11°C° 0.3 mm 4 mps 733 mmHg 95%

19 May, Wednesday

Time Temperature Precipitation Wind Pressure Humidity
00:00 +11°C° 0.5 mm 4 mps 733 mmHg 95%
01:00 +10°C° 0.5 mm 3 mps 733 mmHg 95%
02:00 +10°C° 0.5 mm 3 mps 733 mmHg 95%
03:00 +8°C° 0 mm 4 mps 734 mmHg 95%
04:00 +7°C° 0 mm 4 mps 734 mmHg 94%
05:00 +7°C° 0 mm 4 mps 734 mmHg 94%
06:00 +8°C° 0 mm 4 mps 734 mmHg 91%
07:00 +8°C° 0 mm 4 mps 734 mmHg 88%
08:00 +10°C° 0 mm 4 mps 735 mmHg 86%
09:00 +10°C° 0 mm 5 mps 735 mmHg 78%
10:00 +12°C° 0 mm 5 mps 735 mmHg 71%
11:00 +13°C° 0 mm 5 mps 736 mmHg 64%
12:00 +14°C° 0 mm 5 mps 736 mmHg 62%
13:00 +14°C° 0 mm 5 mps 736 mmHg 61%
14:00 +14°C° 0 mm 4 mps 736 mmHg 59%
15:00 +14°C° 0 mm 4 mps 736 mmHg 61%
16:00 +14°C° 0 mm 4 mps 736 mmHg 62%
17:00 +14°C° 0 mm 4 mps 736 mmHg 64%
18:00 +13°C° 0 mm 4 mps 737 mmHg 71%
19:00 +11°C° 0 mm 3 mps 737 mmHg 78%
20:00 +10°C° 0 mm 2 mps 737 mmHg 85%
21:00 +9°C° 0 mm 2 mps 738 mmHg 88%
22:00 +8°C° 0 mm 2 mps 738 mmHg 91%
23:00 +7°C° 0 mm 2 mps 738 mmHg 95%

20 May, Thursday

Time Temperature Precipitation Wind Pressure Humidity
00:00 +7°C° 0 mm 2 mps 738 mmHg 94%
01:00 +6°C° 0 mm 2 mps 739 mmHg 94%
02:00 +6°C° 0 mm 2 mps 739 mmHg 94%
03:00 +6°C° 0 mm 2 mps 739 mmHg 93%
04:00 +5°C° 0 mm 2 mps 739 mmHg 91%
05:00 +5°C° 0 mm 2 mps 739 mmHg 89%
06:00 +7°C° 0 mm 2 mps 740 mmHg 81%
07:00 +9°C° 0 mm 3 mps 740 mmHg 73%
08:00 +11°C° 0 mm 3 mps 740 mmHg 65%
09:00 +12°C° 0 mm 3 mps 740 mmHg 60%
10:00 +14°C° 0 mm 4 mps 740 mmHg 55%
11:00 +15°C° 0 mm 4 mps 740 mmHg 50%
12:00 +15°C° 0 mm 4 mps 740 mmHg 49%
13:00 +17°C° 0 mm 4 mps 740 mmHg 47%
14:00 +17°C° 0 mm 4 mps 740 mmHg 45%
15:00 +17°C° 0 mm 3 mps 740 mmHg 49%
16:00 +17°C° 0 mm 3 mps 740 mmHg 52%
17:00 +17°C° 0 mm 3 mps 739 mmHg 56%
18:00 +15°C° 0 mm 2 mps 739 mmHg 62%
19:00 +14°C° 0 mm 2 mps 740 mmHg 69%
20:00 +12°C° 0 mm 2 mps 740 mmHg 75%
21:00 +11°C° 0 mm 1 mps 740 mmHg 79%
22:00 +11°C° 0 mm 1 mps 740 mmHg 83%
23:00 +10°C° 0 mm 1 mps 740 mmHg 86%
Show more